| time (UTC) | temp C | wind direction | speed KPH | gust KPH | rain 1hr cm | rain 24hr cm | rain mn cm | humidity % | barometer mb |
| 20260507233002 | -1 | 244 | 0.0 | 0.0 | 0.00 | 0.00 | 0.00 | 59 | 1010.6 |
| 20260507231502 | -1 | 244 | 0.0 | 0.0 | 0.00 | 0.00 | 0.00 | 59 | 1010.6 |
| 20260507230002 | 0 | 244 | 0.0 | 0.0 | 0.00 | 0.00 | 0.00 | 59 | 1010.6 |
| 20260507224502 | 0 | 244 | 0.0 | 0.0 | 0.00 | 0.00 | 0.00 | 59 | 1010.6 |
| 20260507223002 | 0 | 122 | 0.0 | 0.0 | 0.00 | 0.00 | 0.00 | 59 | 1010.6 |
| 20260507221502 | 0 | 122 | 0.0 | 0.0 | 0.00 | 0.00 | 0.00 | 59 | 1010.6 |
| 20260507220002 | 0 | 122 | 0.0 | 0.0 | 0.00 | 0.00 | 0.00 | 59 | 1010.6 |
| 20260507214502 | 0 | 112 | 0.0 | 0.0 | 0.00 | 0.00 | 0.00 | 59 | 1010.6 |
| 20260507213002 | 0 | 112 | 0.0 | 0.0 | 0.00 | 0.00 | 0.00 | 59 | 1010.6 |
| 20260507211502 | 0 | 340 | 0.0 | 0.0 | 0.00 | 0.00 | 0.00 | 59 | 1010.6 |
| 20260507210002 | 0 | 340 | 0.0 | 0.0 | 0.00 | 0.00 | 0.00 | 59 | 1010.6 |
| 20260507204502 | 1 | 340 | 6.4 | 0.0 | 0.00 | 0.00 | 0.00 | 59 | 1010.6 |
| 20260507203002 | 0 | 314 | 8.0 | 0.0 | 0.00 | 0.00 | 0.00 | 59 | 1010.6 |
| 20260507201502 | 1 | 314 | 9.7 | 0.0 | 0.00 | 0.00 | 0.00 | 59 | 1010.6 |
| 20260507200002 | 1 | 277 | 9.7 | 0.0 | 0.00 | 0.00 | 0.00 | 59 | 1010.6 |
| 20260507194502 | 1 | 277 | 4.8 | 0.0 | 0.00 | 0.00 | 0.00 | 59 | 1010.6 |
| 20260507193002 | 1 | 277 | 3.2 | 0.0 | 0.00 | 0.00 | 0.00 | 59 | 1010.6 |
| 20260507191502 | 2 | 264 | 3.2 | 0.0 | 0.00 | 0.00 | 0.00 | 59 | 1010.6 |
| 20260507190003 | 2 | 264 | 4.8 | 0.0 | 0.00 | 0.00 | 0.00 | 59 | 1010.6 |
| 20260507184502 | 3 | 240 | 1.6 | 0.0 | 0.00 | 0.00 | 0.00 | 59 | 1010.6 |
| 20260507183001 | 3 | 240 | 0.0 | 0.0 | 0.00 | 0.00 | 0.00 | 59 | 1010.6 |
| 20260507181502 | 3 | 240 | 0.0 | 0.0 | 0.00 | 0.00 | 0.00 | 59 | 1010.6 |
| 20260507180003 | 5 | 240 | 0.0 | 0.0 | 0.00 | 0.00 | 0.00 | 59 | 1010.6 |
| 20260507174502 | 5 | 240 | 0.0 | 0.0 | 0.00 | 0.00 | 0.00 | 59 | 1010.6 |
| 20260507173003 | 5 | 240 | 0.0 | 0.0 | 0.00 | 0.00 | 0.00 | 59 | 1010.6 |
| 20260507171502 | 5 | 240 | 0.0 | 0.0 | 0.00 | 0.00 | 0.00 | 59 | 1010.6 |
| 20260507170003 | 5 | 240 | 6.4 | 0.0 | 0.00 | 0.00 | 0.00 | 59 | 1010.6 |
| 20260507164502 | 6 | 240 | 8.0 | 0.0 | 0.00 | 0.00 | 0.00 | 59 | 1010.6 |
| 20260507163003 | 6 | 240 | 6.4 | 0.0 | 0.00 | 0.00 | 0.00 | 59 | 1010.6 |
| 20260507161501 | 6 | 240 | 6.4 | 0.0 | 0.00 | 0.00 | 0.00 | 59 | 1010.6 |
| 20260507160002 | 7 | 236 | 9.7 | 0.0 | 0.00 | 0.00 | 0.00 | 59 | 1010.6 |
| 20260507154502 | 8 | 236 | 1.6 | 0.0 | 0.00 | 0.00 | 0.00 | 59 | 1010.6 |
| 20260507153002 | 9 | 236 | 6.4 | 0.0 | 0.00 | 0.00 | 0.00 | 59 | 1010.6 |
| 20260507151502 | 10 | 236 | 8.0 | 0.0 | 0.00 | 0.00 | 0.00 | 59 | 1010.6 |
| 20260507150003 | 9 | 236 | 6.4 | 0.0 | 0.00 | 0.00 | 0.00 | 59 | 1010.6 |
| 20260507144501 | 10 | 256 | 9.7 | 0.0 | 0.00 | 0.00 | 0.00 | 59 | 1010.6 |
| 20260507143002 | 11 | 256 | 6.4 | 0.0 | 0.00 | 0.00 | 0.00 | 59 | 1010.6 |
| 20260507141502 | 11 | 256 | 12.9 | 0.0 | 0.00 | 0.00 | 0.00 | 59 | 1010.6 |
| 20260507140002 | 12 | 352 | 11.3 | 0.0 | 0.00 | 0.00 | 0.00 | 59 | 1010.6 |
| 20260507134502 | 11 | 352 | 11.3 | 0.0 | 0.00 | 0.00 | 0.00 | 59 | 1010.6 |
| 20260507133002 | 11 | 352 | 11.3 | 0.0 | 0.00 | 0.00 | 0.00 | 59 | 1010.6 |
| 20260507131501 | 14 | 352 | 12.9 | 0.0 | 0.00 | 0.00 | 0.00 | 59 | 1010.6 |
| 20260507130002 | 17 | 352 | 6.4 | 0.0 | 0.00 | 0.00 | 0.00 | 59 | 1010.6 |
| 20260507124501 | 18 | 337 | 9.7 | 0.0 | 0.00 | 0.00 | 0.00 | 59 | 1010.6 |
| 20260507123002 | 17 | 337 | 6.4 | 0.0 | 0.00 | 0.00 | 0.00 | 59 | 1010.6 |
| 20260507121502 | 9 | 331 | 3.2 | 0.0 | 0.00 | 0.00 | 0.00 | 59 | 1010.6 |
| 20260507120002 | 14 | 331 | 6.4 | 0.0 | 0.00 | 0.00 | 0.00 | 59 | 1010.6 |
| 20260507114501 | 13 | 331 | 8.0 | 0.0 | 0.00 | 0.00 | 0.00 | 59 | 1010.6 |
| 20260507113002 | 17 | 331 | 11.3 | 0.0 | 0.00 | 0.00 | 0.00 | 59 | 1010.6 |
| 20260507111503 | 17 | 331 | 9.7 | 0.0 | 0.00 | 0.00 | 0.00 | 59 | 1010.6 |
| 20260507110002 | 11 | 328 | 16.1 | 0.0 | 0.00 | 0.00 | 0.00 | 59 | 1010.6 |
| 20260507104502 | 16 | 328 | 8.0 | 0.0 | 0.00 | 0.00 | 0.00 | 59 | 1010.6 |
| 20260507103002 | 16 | 328 | 9.7 | 0.0 | 0.00 | 0.00 | 0.00 | 59 | 1010.6 |
| 20260507101502 | 17 | 333 | 9.7 | 0.0 | 0.00 | 0.00 | 0.00 | 59 | 1010.6 |
| 20260507100002 | 17 | 333 | 8.0 | 0.0 | 0.00 | 0.00 | 0.00 | 59 | 1010.6 |
| 20260507094501 | 15 | 333 | 11.3 | 0.0 | 0.00 | 0.00 | 0.00 | 59 | 1010.6 |
| 20260507091502 | 15 | 333 | 11.3 | 0.0 | 0.00 | 0.00 | 0.00 | 59 | 1010.6 |
| 20260507090002 | 17 | 333 | 8.0 | 0.0 | 0.00 | 0.00 | 0.00 | 59 | 1010.6 |
| 20260507084502 | 13 | 333 | 9.7 | 0.0 | 0.00 | 0.00 | 0.00 | 59 | 1010.6 |
| 20260507083002 | 8 | 333 | 11.3 | 0.0 | 0.00 | 0.00 | 0.00 | 59 | 1010.6 |
| 20260507081502 | 7 | 325 | 9.7 | 0.0 | 0.00 | 0.00 | 0.00 | 59 | 1010.6 |
| 20260507080002 | 10 | 325 | 9.7 | 0.0 | 0.00 | 0.00 | 0.00 | 59 | 1010.6 |
| 20260507074502 | 8 | 325 | 11.3 | 0.0 | 0.00 | 0.00 | 0.00 | 59 | 1010.6 |
| 20260507073002 | 8 | 325 | 11.3 | 0.0 | 0.00 | 0.00 | 0.00 | 59 | 1010.6 |
| 20260507071502 | 8 | 325 | 9.7 | 0.0 | 0.00 | 0.00 | 0.00 | 59 | 1010.6 |
| 20260507070003 | 6 | 325 | 11.3 | 0.0 | 0.00 | 0.00 | 0.00 | 59 | 1010.6 |
| 20260507064502 | 4 | 325 | 11.3 | 0.0 | 0.00 | 0.00 | 0.00 | 59 | 1010.6 |
| 20260507063002 | 5 | 316 | 9.7 | 0.0 | 0.00 | 0.00 | 0.00 | 59 | 1010.6 |
| 20260507061502 | 3 | 316 | 12.9 | 0.0 | 0.00 | 0.00 | 0.00 | 59 | 1010.6 |
| 20260507060002 | 2 | 316 | 11.3 | 0.0 | 0.00 | 0.00 | 0.00 | 59 | 1010.6 |
| 20260507054502 | 2 | 314 | 3.2 | 0.0 | 0.00 | 0.00 | 0.00 | 59 | 1010.6 |
| 20260507053003 | 0 | 314 | 4.8 | 0.0 | 0.00 | 0.00 | 0.00 | 59 | 1010.6 |
| 20260507051502 | -1 | 314 | 0.0 | 0.0 | 0.00 | 0.00 | 0.00 | 59 | 1010.6 |
| 20260507050002 | -2 | 314 | 6.4 | 0.0 | 0.00 | 0.00 | 0.00 | 59 | 1010.6 |
| 20260507044502 | -2 | 314 | 9.7 | 0.0 | 0.00 | 0.00 | 0.00 | 59 | 1010.6 |
| 20260507043002 | -2 | 314 | 9.7 | 0.0 | 0.00 | 0.00 | 0.00 | 59 | 1010.6 |
| 20260507041502 | -3 | 314 | 3.2 | 0.0 | 0.00 | 0.00 | 0.00 | 59 | 1010.6 |
| 20260507040002 | -3 | 314 | 6.4 | 0.0 | 0.00 | 0.00 | 0.00 | 59 | 1010.6 |
| 20260507034502 | -4 | 316 | 11.3 | 0.0 | 0.00 | 0.00 | 0.00 | 59 | 1010.6 |
| 20260507033001 | -4 | 316 | 11.3 | 0.0 | 0.00 | 0.00 | 0.00 | 59 | 1010.6 |
| 20260507031502 | -5 | 316 | 6.4 | 0.0 | 0.00 | 0.00 | 0.00 | 59 | 1010.6 |
| 20260507030002 | -4 | 316 | 8.0 | 0.0 | 0.00 | 0.00 | 0.00 | 59 | 1010.6 |
| 20260507024502 | -4 | 316 | 9.7 | 0.0 | 0.00 | 0.00 | 0.00 | 59 | 1010.6 |
| 20260507023002 | -5 | 310 | 8.0 | 0.0 | 0.00 | 0.00 | 0.00 | 59 | 1010.6 |
| 20260507021502 | -5 | 310 | 3.2 | 0.0 | 0.00 | 0.00 | 0.00 | 59 | 1010.6 |
| 20260507020002 | -5 | 312 | 4.8 | 0.0 | 0.00 | 0.00 | 0.00 | 59 | 1010.6 |
| 20260507014502 | -5 | 312 | 4.8 | 0.0 | 0.00 | 0.00 | 0.00 | 59 | 1010.6 |
| 20260507013002 | -5 | 312 | 6.4 | 0.0 | 0.00 | 0.00 | 0.00 | 59 | 1010.6 |
| 20260507011502 | -5 | 312 | 6.4 | 0.0 | 0.00 | 0.00 | 0.00 | 59 | 1010.6 |
| 20260507010002 | -5 | 312 | 4.8 | 0.0 | 0.00 | 0.00 | 0.00 | 59 | 1010.6 |
| 20260507004502 | -5 | 308 | 3.2 | 0.0 | 0.00 | 0.00 | 0.00 | 59 | 1010.6 |
| 20260507003002 | -4 | 308 | 9.7 | 0.0 | 0.00 | 0.00 | 0.00 | 59 | 1010.6 |
| 20260507001502 | -3 | 308 | 8.0 | 0.0 | 0.00 | 0.00 | 0.00 | 59 | 1010.6 |
| 20260507000002 | -3 | 304 | 11.3 | 0.0 | 0.00 | 0.00 | 0.00 | 59 | 1010.6 |
| 20260506234502 | -4 | 304 | 9.7 | 0.0 | 0.00 | 0.00 | 0.00 | 59 | 1010.6 |